Find Starlink 32641

NORAD ID: 62236 Int'l Des: 2024-231 Owner: SPXS Country: US Constellation: starlink operational
LEOCIRCULAR

当前视图

正在加载3D地球...

About Starlink 32641

Starlink 32641 (NORAD 62236) is a starlink constellation satellite (v2 mini) launched Dec 5, 2024 by SPXS of US. It operates in LEO, CIRCULAR orbit with a mass of 730.00 kg.

关于 Starlink 32641

正在加载描述...

即将过境

Passes for default location (London). Set your location on the main map for personalized predictions.

高度历史

Loading altitude history...

两行轨道根数

1 62236U 24231U 26190.73447152 .00010789 00000-0 37583-3 0 9996
2 62236 53.1617 359.9834 0001324 93.3142 266.8010 15.30204125 90620
Epoch: Jul 9, 2026 • Age: 24 hours

当前状态

高度 475.3 km
远地点 / 近地点 N/A
速度 7.63 km/s
星下点 7.64°N, 174.79°E
发射日期 Dec 5, 2024
运行时间 1.5 years
类型 internet

技术详情

分类 Payload
质量 730.00 kg
干质量 700.00 kg
总质量 730.00 kg
长度 0.30 m
直径 4.10 m
跨度 29.00 m
形状 Box + pan
制造商 SPXS
平台类型 Starlink V2M
阶段状态 In Orbit
所有者/国家 SPXS/US

Most Searched